Location: Berg
(47.2344°N, 9.5296°E)
Time: 22:05:37
(UTC+00:00)

CZ-2C R/B - Pass Details

Date: 24 January 2021
Orbit: 785 x 870 km, 98.2° (Epoch: 04 March)

Event Time Altitude Azimuth Distance (km) Brightness Sun altitude
Exits shadow 19:52:02 33° 303° (WNW) 1,420 4.2 -37.0°
Maximum altitude 19:52:24 33° 296° (WNW) 1,411 4.2 -37.1°
Drops below altitude 10° 19:57:20 10° 233° (SW) 2,511 5.5 -37.9°
Sets 19:59:56 0° 225° (SW) 3,447 6.2 -38.3°
